Hourly Data Report for April 27, 2010

YELLOWKNIFE A
NORTHWEST TERRITORIES

62°27'46.000" N
114°26'25.000" W
205.70 m
2204100
71936
YZF

Download Data

Hourly Data (April 2010)
Hourly Data Report for April 27, 2010
TIME
LST
Temp Definition
°C
Dew Point Definition
°C
Rel Hum Definition
%
Precip. Amount Definition
mm

Wind Dir Definition
10's deg

Wind Spd Definition
km/h
Visibility Definition
km
Stn Press Definition
kPa
Hmdx Definition


Wind Chill Definition


Weather Definition


00:00 -0.3 -9.0 52   9 11 24.1 99.38   -4 Clear
01:00 -0.9 -8.9 55   9 9 24.1 99.33   -4 Clear
02:00 -1.1 -8.8 56   8 19 24.1 99.28   -6 Clear
03:00 -1.2 -8.6 57   9 19 24.1 99.24   -7 Clear
04:00 -1.8 -8.6 60   8 11 24.1 99.21   -6 Clear
05:00 -1.5 -8.4 59   9 19 24.1 99.16   -7 Clear
06:00 -1.1 -8.2 58   8 15 24.1 99.15   -6 Clear
07:00 0.1 -7.8 55   9 22 24.1 99.12     Clear
08:00 1.5 -7.5 51   8 19 24.1 99.11     Mainly Clear
09:00 3.3 -7.1 46   8 15 24.1 99.08     Mainly Clear
10:00 5.8 -6.6 40   9 13 24.1 99.04     Mainly Clear
11:00 6.8 -6.9 37   11 15 24.1 98.96     Mainly Clear
12:00 7.5 -7.4 34   11 19 24.1 98.92     Clear
13:00 8.5 -6.7 33   12 17 24.1 98.86     Clear
14:00 8.5 -7.5 31   15 9 24.1 98.80     Clear
15:00 8.9 -7.0 32   15 13 24.1 98.75     Clear
16:00 8.8 -7.1 32   8 7 24.1 98.70     Clear
17:00 9.0 -7.2 31   11 9 24.1 98.65     Clear
18:00 8.6 -7.4 31     0 24.1 98.64     Clear
19:00 7.4 -7.3 34   9 9 24.1 98.62     Clear
20:00 6.4 -7.0 38   9 7 24.1 98.61     Clear
21:00 4.5 -6.9 43   5 13 24.1 98.62     Clear
22:00 3.2 -7.1 47   8 7 24.1 98.62     Mainly Clear
23:00 2.3 -7.3 49   6 15 24.1 98.59     Clear

Notes on Data Quality.

Legend

  • E = Estimated
  • M = Missing
  • NA = Not Available*
  • [empty] = Indicates an unobserved value
Date modified: